CW0179 Weather Reports


Display with metric or nautical units.
time (UTC)temp
F
wind
direction
speed
MPH
gust
MPH
rain 1hr
in
rain 24hr
in
rain mn
in
humidity
%
barometer
mb
20260905012420 68 143 0.0 0.0 0.00 1.21 1.11 95 1009.5
20260905010214 69 143 0.0 0.0 0.00 1.21 1.11 94 1009.7
20260905004025 69 143 0.0 0.0 0.00 1.21 1.11 93 1009.5
20260905003030 70 143 0.0 0.0 0.00 1.21 1.11 92 1009.4
20260905002000 71 143 0.0 0.0 0.00 1.21 1.11 91 1009.4
20260905000938 71 143 0.0 0.0 0.00 1.21 1.11 90 1009.3
20260904235922 72 143 0.0 0.0 0.00 1.21 1.11 89 1009.4
20260904234914 73 143 0.0 0.0 0.00 1.21 1.11 88 1009.3
20260904233855 74 144 0.0 0.0 0.00 1.21 1.11 86 1009.2
20260904232834 74 143 0.0 0.0 0.00 1.21 1.11 85 1009.2
20260904231814 75 143 0.0 0.0 0.00 1.21 1.11 83 1009.1
20260904230827 76 143 0.0 0.0 0.00 1.21 1.11 81 1009.1
20260904225829 76 143 0.0 0.0 0.00 1.21 1.11 80 1009.0
20260904224843 77 143 0.0 0.0 0.00 1.21 1.11 78 1009.1
20260904223825 78 142 0.0 0.0 0.00 1.21 1.11 75 1009.1
20260904222834 79 142 0.0 0.0 0.00 1.21 1.11 73 1009.1
20260904221810 80 143 0.0 0.0 0.00 1.21 1.11 70 1009.1
20260904215619 83 142 0.0 0.0 0.00 1.21 1.11 63 1008.9
20260904214609 84 142 0.0 0.0 0.00 1.21 1.11 59 1009.0
20260904212454 85 162 0.0 0.0 0.00 1.21 1.11 56 1008.9
20260904211451 85 139 0.0 0.0 0.00 1.21 1.11 58 1009.0
20260904205313 85 115 0.0 4.0 0.00 1.21 1.11 55 1009.1
20260904203233 85 143 0.0 3.0 0.00 1.21 1.11 56 1009.2
20260904202207 85 153 0.0 5.0 0.00 1.21 1.11 55 1009.2
20260904201225 85 190 0.0 3.0 0.00 1.21 1.11 56 1009.3
20260904195032 85 139 0.0 3.0 0.00 1.21 1.11 54 1009.2
20260904194054 86 163 0.0 2.0 0.00 1.21 1.11 54 1009.3
20260904193032 85 122 1.0 6.0 0.00 1.21 1.11 55 1009.3
20260904192041 85 226 0.0 4.0 0.00 1.21 1.11 57 1009.5
20260904191100 85 129 0.0 3.0 0.00 1.21 1.11 59 1009.6
20260904190035 85 195 0.0 6.0 0.00 1.21 1.11 58 1009.8
20260904183919 84 198 1.0 6.0 0.00 1.21 1.11 59 1009.7
20260904182923 84 127 1.0 6.0 0.00 1.21 1.11 58 1009.7
20260904181927 84 203 1.0 6.0 0.00 1.21 1.11 57 1009.9
20260904175815 84 153 1.0 7.0 0.00 1.21 1.11 59 1009.7
20260904174820 84 180 0.0 4.0 0.00 1.21 1.11 58 1009.8
20260904173822 84 159 1.0 9.0 0.00 1.21 1.11 57 1009.8
20260904172824 84 238 1.0 9.0 0.00 1.21 1.11 56 1009.6
20260904171759 84 186 1.0 9.0 0.00 1.21 1.11 57 1009.7
20260904165645 83 91 2.0 8.0 0.00 1.21 1.11 59 1009.9
20260904164707 83 179 1.0 5.0 0.00 1.21 1.11 61 1009.9
20260904163723 83 118 1.0 7.0 0.00 1.21 1.11 62 1009.8
20260904162705 83 155 1.0 8.0 0.00 1.21 1.11 63 1009.8
20260904161641 82 181 2.0 7.0 0.00 1.21 1.11 63 1010.0
20260904160611 82 177 1.0 9.0 0.00 1.21 1.11 65 1010.0
20260904155616 82 212 2.0 9.0 0.00 1.21 1.11 66 1010.0
20260904154548 82 155 2.0 7.0 0.00 1.21 1.11 68 1010.2
20260904153514 82 219 1.0 9.0 0.00 1.21 1.11 68 1010.3
20260904152527 82 207 2.0 11.0 0.00 1.21 1.11 70 1010.2
20260904151510 82 200 1.0 11.0 0.00 1.21 1.11 70 1010.3
20260904150441 82 165 1.0 8.0 0.00 1.21 1.11 71 1010.3
20260904145502 82 136 0.0 6.0 0.00 1.21 1.11 73 1010.4
20260904143318 81 175 1.0 6.0 0.00 1.21 1.11 78 1010.2
20260904142342 81 174 1.0 5.0 0.00 1.21 1.11 81 1010.2
20260904141355 81 210 0.0 3.0 0.00 1.21 1.11 82 1010.2
20260904140352 81 179 1.0 5.0 0.00 1.21 1.11 82 1010.1
20260904135405 80 125 0.0 5.0 0.00 1.21 1.11 82 1010.1
20260904134339 79 215 0.0 3.0 0.00 1.21 1.11 85 1010.0
20260904133337 79 178 0.0 3.0 0.00 1.21 1.11 86 1010.0
20260904132341 78 146 0.0 0.0 0.00 1.21 1.11 90 1010.0
20260904131308 77 188 0.0 2.0 0.00 1.21 1.11 91 1010.0
20260904130316 76 184 0.0 1.0 0.00 1.21 1.11 93 1010.2
20260904125336 75 160 0.0 4.0 0.00 1.21 1.11 93 1010.1
20260904124319 75 187 0.0 2.0 0.00 1.21 1.11 95 1010.1
20260904123332 74 188 0.0 4.0 0.00 1.21 1.11 96 1010.1
20260904121139 72 122 0.0 0.0 0.00 1.21 1.11 99 1010.1
20260904120200 72 176 0.0 1.0 0.00 1.21 1.11 99 1010.2
20260904115223 71 200 0.0 0.0 0.00 1.21 1.11 99 1010.2
20260904114213 71 172 0.0 0.0 0.00 1.21 1.11 99 1010.1
20260904113223 70 172 0.0 0.0 0.00 1.21 1.11 99 1010.0
20260904112238 70 172 0.0 0.0 0.00 1.21 1.11 99 1010.0
20260904111237 70 170 0.0 0.0 0.00 1.21 1.11 99 1009.9
20260904110257 69 170 0.0 0.0 0.00 1.21 1.11 99 1009.9
20260904082314 71 84 0.0 0.0 0.00 1.21 1.11 100 1008.5
20260904081252 72 84 0.0 0.0 0.00 1.21 1.11 98 1008.6
20260904080316 72 153 0.0 0.0 0.00 1.21 1.11 98 1009.0
20260904075339 72 184 0.0 2.0 0.08 1.21 1.11 99 1009.3
20260904074343 72 165 0.0 5.0 1.05 1.17 1.10 99 1009.4
20260904071047 72 188 0.0 0.0 0.04 0.88 0.79 99 1008.5
20260904070038 73 188 0.0 0.0 0.16 0.88 0.79 99 1008.7
20260904065047 73 129 0.0 0.0 0.38 0.69 0.61 99 1009.3
20260904062908 73 122 0.0 0.0 0.08 0.66 0.57 98 1009.3
20260904061905 73 350 0.0 5.0 5.05 0.44 0.47 99 1009.6
20260904060855 73 163 0.0 0.0 0.04 0.21 0.12 99 1009.5
20260904055907 73 136 0.0 0.0 0.10 0.21 0.10 99 1009.9
20260904054854 73 181 0.0 0.0 0.10 0.21 0.09 99 1010.0
20260904053823 73 183 0.0 0.0 0.19 0.17 0.04 99 1010.1
20260904052821 73 169 0.0 0.0 0.00 0.18 0.02 99 1009.9
20260904051818 73 168 0.0 0.0 0.00 0.21 0.01 99 1009.8
20260904050759 73 169 0.0 0.0 0.00 0.23 0.01 99 1009.9
20260904045823 73 169 0.0 0.0 0.00 0.23 0.00 98 1010.1
20260904044800 73 169 0.0 0.0 0.00 0.23 0.00 98 1010.2
20260904043825 73 169 0.0 0.0 0.00 0.23 0.00 98 1010.3
20260904042801 73 169 0.0 0.0 0.00 0.23 0.00 98 1010.4
20260904040632 73 169 0.0 0.0 0.00 0.23 0.00 98 1010.3
20260904035639 73 169 0.0 0.0 0.04 0.23 0.23 98 1010.3
20260904034626 73 169 0.0 0.0 0.10 0.23 0.23 98 1010.5
20260904033601 73 161 0.0 0.0 0.49 0.16 0.19 98 1010.7
20260904032532 73 161 0.0 0.0 0.00 0.13 0.13 98 1010.7
20260904031546 73 160 0.0 0.0 0.00 0.13 0.13 98 1010.5
20260904030534 73 160 0.0 0.0 0.00 0.13 0.13 98 1010.6
20260904024345 73 160 0.0 0.0 0.00 0.13 0.13 98 1010.9
20260904023328 73 161 0.0 0.0 0.00 0.13 0.13 97 1011.2
20260904022345 73 160 0.0 0.0 0.00 0.13 0.13 97 1011.2
20260904021319 73 160 0.0 0.0 0.00 0.13 0.13 97 1011.3
20260904015132 73 160 0.0 0.0 0.00 0.13 0.13 97 1011.4
20260904014152 73 159 0.0 0.0 0.00 0.13 0.13 97 1011.4
20260904013123 73 160 0.0 0.0 0.00 0.13 0.13 96 1011.6